Location: Newark
(22.3060°N, 114.2134°E)
Time: 23:18:34
(UTC+00:00)

Explorer 11/Cluster Stage 4 - Pass Details

Date: 30 July 2021
Orbit: 467 x 1256 km, 28.8° (Epoch: 26 September)

Event Time Altitude Azimuth Distance (km) Brightness Sun altitude
Rises 07:03:53 0° 289° (WNW) 3,959 10.7 53.7°
Reaches altitude 10° 07:06:55 10° 289° (WNW) 2,894 10.3 53.0°
Maximum altitude 07:14:00 87° 202° (SSW) 915 8.0 51.4°
Drops below altitude 10° 07:19:36 10° 112° (ESE) 2,316 8.7 50.1°
Sets 07:21:48 0° 112° (ESE) 3,125 9.3 49.6°
